ETH715 ENGM-ESSA

Flight info

Callsign ETH715
Flight time 0h 39m
Altitude 31000
Route MASEV Z183 LEGPO DCT ELTOK
Aircraft B77L/H-SDE1E2E3FGHIJ2J3J4J5M1RWXY/LB1D1

Departure

Time 2026-05-06 17:59
Airport Oslo-Gardermoen International Airport (ENGM)

Arrival

Time 2026-05-06 18:38
Airport Stockholm-Arlanda Airport (ESSA)
Time Latitude Longitude Altitude Speed Heading
2026-05-06 17:33 60.19400 11.10654 686 ft 0 kts 196°
2026-05-06 17:48 60.19403 11.10656 687 ft 2 kts 196°
2026-05-06 17:48 60.19419 11.10665 680 ft 2 kts 196°
2026-05-06 17:48 60.19434 11.10674 681 ft 2 kts 196°
2026-05-06 17:49 60.19450 11.10683 679 ft 2 kts 196°
2026-05-06 17:49 60.19466 11.10692 679 ft 2 kts 196°
2026-05-06 17:49 60.19481 11.10701 679 ft 2 kts 181°
2026-05-06 17:49 60.19496 11.10689 678 ft 2 kts 111°
2026-05-06 17:50 60.19501 11.10658 678 ft 2 kts 103°
2026-05-06 17:50 60.19501 11.10656 678 ft 0 kts 103°
2026-05-06 17:53 60.19491 11.10734 681 ft 11 kts 105°
2026-05-06 17:53 60.19468 11.10888 683 ft 12 kts 107°
2026-05-06 17:53 60.19445 11.11049 684 ft 12 kts 106°
2026-05-06 17:53 60.19425 11.11218 683 ft 13 kts 90°
2026-05-06 17:54 60.19484 11.11318 680 ft 13 kts 18°
2026-05-06 17:54 60.19577 11.11374 684 ft 14 kts 17°
2026-05-06 17:54 60.19668 11.11426 684 ft 14 kts 15°
2026-05-06 17:54 60.19761 11.11479 685 ft 14 kts 16°
2026-05-06 17:55 60.19856 11.11535 689 ft 14 kts 17°
2026-05-06 17:55 60.19952 11.11589 687 ft 14 kts 17°
2026-05-06 17:55 60.20047 11.11646 686 ft 14 kts 17°
2026-05-06 17:55 60.20088 11.11738 687 ft 14 kts 92°
2026-05-06 17:56 60.20070 11.11878 686 ft 2 kts 106°
2026-05-06 17:56 60.20061 11.11945 690 ft 5 kts 106°
2026-05-06 17:56 60.20056 11.11979 690 ft 3 kts 106°
2026-05-06 17:56 60.20055 11.11985 689 ft 0 kts 107°
2026-05-06 17:57 60.20051 11.12014 687 ft 4 kts 107°
2026-05-06 17:57 60.20042 11.12074 689 ft 6 kts 107°
2026-05-06 17:58 60.20024 11.12166 687 ft 3 kts 131°
2026-05-06 17:58 60.19992 11.12178 683 ft 6 kts 199°
2026-05-06 17:58 60.19988 11.12175 683 ft 0 kts 199°
2026-05-06 17:59 60.19979 11.12169 684 ft 12 kts 199°
2026-05-06 17:59 60.19536 11.11910 688 ft 124 kts 196°
2026-05-06 17:59 60.18422 11.11280 1031 ft 190 kts 197°
2026-05-06 17:59 60.17069 11.10507 1936 ft 209 kts 198°
2026-05-06 18:00 60.15730 11.09744 3352 ft 205 kts 198°
2026-05-06 18:00 60.14262 11.09014 3855 ft 230 kts 186°
2026-05-06 18:00 60.12682 11.09839 4696 ft 247 kts 148°
2026-05-06 18:00 60.11391 11.12278 5416 ft 263 kts 133°
2026-05-06 18:01 60.10140 11.15001 6370 ft 271 kts 134°
2026-05-06 18:01 60.08834 11.17797 6938 ft 275 kts 134°
2026-05-06 18:01 60.07735 11.20958 6987 ft 283 kts 111°
2026-05-06 18:01 60.07544 11.24867 7419 ft 288 kts 79°
2026-05-06 18:02 60.07978 11.28748 8465 ft 287 kts 79°
2026-05-06 18:02 60.08314 11.32703 9623 ft 289 kts 82°
2026-05-06 18:02 60.08626 11.36734 10545 ft 300 kts 82°
2026-05-06 18:02 60.08965 11.41081 10925 ft 332 kts 82°
2026-05-06 18:03 60.09339 11.45865 11390 ft 360 kts 82°
2026-05-06 18:03 60.09745 11.50927 12328 ft 374 kts 82°
2026-05-06 18:03 60.10165 11.56157 13414 ft 385 kts 82°
2026-05-06 18:03 60.10600 11.61536 14429 ft 396 kts 82°
2026-05-06 18:04 60.10888 11.65086 15088 ft 401 kts 82°
2026-05-06 18:04 60.11341 11.70665 16133 ft 409 kts 82°
2026-05-06 18:04 60.11802 11.76353 17138 ft 418 kts 82°
2026-05-06 18:04 60.12272 11.82189 18127 ft 428 kts 82°
2026-05-06 18:05 60.12748 11.88130 19002 ft 436 kts 82°
2026-05-06 18:05 60.13231 11.94188 19887 ft 443 kts 82°
2026-05-06 18:05 60.13713 12.00273 20761 ft 450 kts 82°
2026-05-06 18:05 60.14204 12.06520 21613 ft 458 kts 82°
2026-05-06 18:06 60.14703 12.12907 22454 ft 466 kts 82°
2026-05-06 18:06 60.15207 12.19383 23308 ft 473 kts 82°
2026-05-06 18:06 60.15713 12.25954 24034 ft 480 kts 83°
2026-05-06 18:06 60.16224 12.32629 24766 ft 486 kts 83°
2026-05-06 18:07 60.16737 12.39358 25482 ft 492 kts 83°
2026-05-06 18:07 60.17245 12.46224 26187 ft 498 kts 85°
2026-05-06 18:07 60.17519 12.53188 26876 ft 502 kts 92°
2026-05-06 18:07 60.17456 12.60204 27668 ft 501 kts 99°
2026-05-06 18:08 60.17046 12.67099 28729 ft 494 kts 103°
2026-05-06 18:08 60.16581 12.73918 29869 ft 491 kts 104°
2026-05-06 18:08 60.16114 12.80706 30628 ft 491 kts 104°
2026-05-06 18:08 60.15653 12.87487 30946 ft 489 kts 103°
2026-05-06 18:09 60.14756 13.00970 30903 ft 489 kts 103°
2026-05-06 18:09 60.13867 13.14509 30906 ft 488 kts 103°
2026-05-06 18:10 60.12986 13.27616 30916 ft 488 kts 104°
2026-05-06 18:10 60.12068 13.41090 30905 ft 487 kts 104°
2026-05-06 18:11 60.11143 13.54466 30912 ft 487 kts 104°
2026-05-06 18:11 60.10199 13.67905 30905 ft 487 kts 104°
2026-05-06 18:12 60.09238 13.81351 30911 ft 488 kts 104°
2026-05-06 18:12 60.08264 13.94817 30919 ft 488 kts 104°
2026-05-06 18:13 60.07276 14.08266 30925 ft 488 kts 105°
2026-05-06 18:13 60.06273 14.21732 30935 ft 488 kts 105°
2026-05-06 18:14 60.05261 14.35161 30934 ft 488 kts 105°
2026-05-06 18:14 60.04239 14.48549 30912 ft 475 kts 105°
2026-05-06 18:15 60.03748 14.54971 30925 ft 462 kts 105°
2026-05-06 18:15 60.03254 14.61325 30922 ft 459 kts 106°
2026-05-06 18:15 60.02761 14.67595 30687 ft 455 kts 106°
2026-05-06 18:15 60.02264 14.73848 30245 ft 455 kts 106°
2026-05-06 18:16 60.01769 14.80015 29751 ft 454 kts 106°
2026-05-06 18:16 60.01269 14.86235 29212 ft 452 kts 106°
2026-05-06 18:16 60.00769 14.92430 28656 ft 450 kts 106°
2026-05-06 18:16 60.00270 14.98581 28143 ft 447 kts 106°
2026-05-06 18:17 59.99773 15.04692 27626 ft 445 kts 106°
2026-05-06 18:17 59.99276 15.10777 27115 ft 443 kts 106°
2026-05-06 18:17 59.98777 15.16840 26615 ft 441 kts 106°
2026-05-06 18:17 59.98278 15.22862 26122 ft 438 kts 105°
2026-05-06 18:18 59.97779 15.28848 25644 ft 436 kts 105°
2026-05-06 18:18 59.97279 15.34811 25172 ft 434 kts 105°
2026-05-06 18:18 59.96779 15.40745 24705 ft 432 kts 105°
2026-05-06 18:18 59.96278 15.46648 24248 ft 430 kts 105°
2026-05-06 18:19 59.95775 15.52547 23793 ft 429 kts 105°
2026-05-06 18:19 59.95274 15.58398 23311 ft 427 kts 105°
2026-05-06 18:19 59.94771 15.64224 22781 ft 425 kts 105°
2026-05-06 18:19 59.94268 15.70026 22256 ft 423 kts 104°
2026-05-06 18:20 59.93772 15.75726 21752 ft 420 kts 104°
2026-05-06 18:20 59.93272 15.81444 21244 ft 418 kts 104°
2026-05-06 18:20 59.92769 15.87149 20751 ft 415 kts 104°
2026-05-06 18:20 59.92270 15.92798 20257 ft 412 kts 103°
2026-05-06 18:21 59.91772 15.98407 19764 ft 409 kts 103°
2026-05-06 18:21 59.91278 16.03976 19302 ft 406 kts 103°
2026-05-06 18:21 59.90782 16.09507 18821 ft 403 kts 103°
2026-05-06 18:21 59.90291 16.14978 18374 ft 400 kts 102°
2026-05-06 18:22 59.89963 16.18586 18028 ft 398 kts 102°
2026-05-06 18:22 59.89469 16.23979 17517 ft 394 kts 102°
2026-05-06 18:22 59.88980 16.29311 17007 ft 391 kts 102°
2026-05-06 18:22 59.88489 16.34639 16487 ft 387 kts 102°
2026-05-06 18:23 59.88006 16.39876 16001 ft 383 kts 102°
2026-05-06 18:23 59.87524 16.45072 15485 ft 379 kts 102°
2026-05-06 18:23 59.87046 16.50215 15014 ft 376 kts 102°
2026-05-06 18:23 59.86570 16.55301 14540 ft 372 kts 102°
2026-05-06 18:24 59.86098 16.60331 14065 ft 368 kts 102°
2026-05-06 18:24 59.85627 16.65322 13584 ft 365 kts 102°
2026-05-06 18:24 59.85161 16.70248 13067 ft 361 kts 102°
2026-05-06 18:24 59.84701 16.75084 12556 ft 358 kts 102°
2026-05-06 18:25 59.84240 16.79923 12060 ft 354 kts 102°
2026-05-06 18:25 59.83791 16.84621 11518 ft 329 kts 102°
2026-05-06 18:25 59.83374 16.88960 11066 ft 322 kts 102°
2026-05-06 18:25 59.82952 16.93310 10659 ft 319 kts 102°
2026-05-06 18:26 59.82536 16.97620 10275 ft 316 kts 101°
2026-05-06 18:26 59.82429 17.01907 9846 ft 309 kts 85°
2026-05-06 18:26 59.82698 17.06128 9428 ft 307 kts 80°
2026-05-06 18:26 59.83020 17.10308 8993 ft 304 kts 82°
2026-05-06 18:27 59.83201 17.13978 8620 ft 303 kts 86°
2026-05-06 18:27 59.83286 17.16947 8328 ft 302 kts 87°
2026-05-06 18:27 59.83389 17.21106 7902 ft 299 kts 87°
2026-05-06 18:27 59.83489 17.25225 7490 ft 297 kts 87°
2026-05-06 18:28 59.83587 17.29310 7090 ft 294 kts 87°
2026-05-06 18:28 59.83684 17.33323 6857 ft 288 kts 87°
2026-05-06 18:28 59.83779 17.37276 6601 ft 284 kts 87°
2026-05-06 18:28 59.83873 17.41168 6343 ft 280 kts 87°
2026-05-06 18:29 59.83965 17.45038 6078 ft 280 kts 87°
2026-05-06 18:29 59.84060 17.48889 5808 ft 277 kts 87°
2026-05-06 18:29 59.84154 17.52661 5582 ft 268 kts 87°
2026-05-06 18:29 59.84247 17.56290 5385 ft 258 kts 87°
2026-05-06 18:30 59.84337 17.59789 5177 ft 246 kts 87°
2026-05-06 18:30 59.84426 17.63048 4986 ft 231 kts 88°
2026-05-06 18:30 59.84518 17.66239 4867 ft 232 kts 87°
2026-05-06 18:30 59.84611 17.69389 4750 ft 231 kts 88°
2026-05-06 18:31 59.84709 17.72611 4600 ft 230 kts 88°
2026-05-06 18:31 59.84811 17.75783 4415 ft 229 kts 88°
2026-05-06 18:31 59.84919 17.78908 4237 ft 229 kts 88°
2026-05-06 18:31 59.85041 17.82068 4042 ft 228 kts 88°
2026-05-06 18:32 59.85170 17.85200 3858 ft 226 kts 87°
2026-05-06 18:32 59.85300 17.88298 3673 ft 225 kts 88°
2026-05-06 18:32 59.85434 17.91398 3506 ft 224 kts 88°
2026-05-06 18:32 59.85569 17.94479 3315 ft 221 kts 90°
2026-05-06 18:33 59.85276 17.97361 3084 ft 211 kts 124°
2026-05-06 18:33 59.84260 17.99286 2905 ft 195 kts 154°
2026-05-06 18:33 59.83022 18.00174 2726 ft 185 kts 167°
2026-05-06 18:33 59.81801 18.00786 2579 ft 175 kts 167°
2026-05-06 18:34 59.80611 18.01225 2508 ft 174 kts 182°
2026-05-06 18:34 59.79429 18.01024 2548 ft 171 kts 186°
2026-05-06 18:34 59.78231 18.00717 2513 ft 174 kts 188°
2026-05-06 18:34 59.77044 18.00316 2505 ft 172 kts 190°
2026-05-06 18:35 59.75876 17.99898 2408 ft 173 kts 190°
2026-05-06 18:35 59.74698 17.99466 2157 ft 170 kts 190°
2026-05-06 18:35 59.73542 17.99039 1928 ft 168 kts 189°
2026-05-06 18:35 59.72408 17.98625 1706 ft 167 kts 189°
2026-05-06 18:36 59.71313 17.98225 1478 ft 152 kts 189°
2026-05-06 18:36 59.70308 17.97861 1269 ft 142 kts 189°
2026-05-06 18:36 59.69384 17.97522 1066 ft 128 kts 188°
2026-05-06 18:36 59.68530 17.97222 863 ft 125 kts 188°
2026-05-06 18:37 59.67662 17.96919 773 ft 128 kts 188°
2026-05-06 18:37 59.66777 17.96584 626 ft 129 kts 187°
2026-05-06 18:37 59.65896 17.96259 408 ft 127 kts 186°
2026-05-06 18:37 59.65038 17.95949 215 ft 122 kts 187°
2026-05-06 18:38 59.64259 17.95667 123 ft 99 kts 191°
2026-05-06 18:38 59.63766 17.95483 129 ft 59 kts 191°
2026-05-06 18:38 59.63377 17.95343 136 ft 53 kts 190°
2026-05-06 18:38 59.63078 17.95214 143 ft 37 kts 202°
2026-05-06 18:39 59.62930 17.95031 146 ft 7 kts 218°
2026-05-06 18:39 59.62883 17.94953 147 ft 14 kts 221°
2026-05-06 18:39 59.62868 17.94779 147 ft 16 kts 325°
2026-05-06 18:40 59.63115 17.94839 142 ft 20 kts 11°
2026-05-06 18:40 59.63262 17.94892 140 ft 22 kts 10°
2026-05-06 18:40 59.63417 17.94950 137 ft 24 kts 11°
2026-05-06 18:40 59.63587 17.95011 134 ft 25 kts 11°
2026-05-06 18:41 59.63764 17.95074 128 ft 26 kts 10°
2026-05-06 18:41 59.63942 17.95139 125 ft 26 kts 10°
2026-05-06 18:41 59.64122 17.95203 120 ft 27 kts 10°
2026-05-06 18:41 59.64309 17.95271 119 ft 27 kts 10°
2026-05-06 18:42 59.64497 17.95340 116 ft 27 kts 10°
2026-05-06 18:42 59.64685 17.95408 113 ft 27 kts 10°
2026-05-06 18:42 59.64874 17.95478 112 ft 28 kts 10°
2026-05-06 18:42 59.65066 17.95499 111 ft 28 kts 348°
2026-05-06 18:43 59.65251 17.95404 112 ft 28 kts 346°
2026-05-06 18:43 59.65438 17.95306 117 ft 28 kts 345°
2026-05-06 18:43 59.65625 17.95206 121 ft 28 kts 345°
2026-05-06 18:43 59.65742 17.95094 121 ft 18 kts 301°
2026-05-06 18:44 59.65726 17.94831 123 ft 22 kts 255°
2026-05-06 18:44 59.65692 17.94566 121 ft 15 kts 256°
2026-05-06 18:44 59.65663 17.94350 124 ft 17 kts 255°
2026-05-06 18:44 59.65634 17.94119 120 ft 18 kts 256°
2026-05-06 18:45 59.65603 17.93874 119 ft 19 kts 256°
2026-05-06 18:45 59.65570 17.93608 119 ft 21 kts 256°
2026-05-06 18:45 59.65547 17.93432 118 ft 7 kts 256°
2026-05-06 18:45 59.65513 17.93353 120 ft 9 kts 197°
2026-05-06 18:46 59.65456 17.93345 117 ft 6 kts 159°
2026-05-06 18:46 59.65450 17.93406 118 ft 5 kts 72°
2026-05-06 18:46 59.65461 17.93485 119 ft 7 kts 75°
2026-05-06 18:46 59.65464 17.93506 119 ft 0 kts 75°